Heubes-Wetterstation in 44289 Dortmund
Heubes-Wetterstation

Messwerte der letzten 60 Minuten im Minuten-Intervall (Wetterstation 44289 Dortmund)

Datum & Uhrzeit Temp. Feucht. Wind-Ø Böen Sekt.  Regen Rate Luftdruck
10.07.2020 - 01:4317.1 °C88%0 km/h 0 km/h S-SW0.0 mm 0.0 mm 1009.6 hPa, gleichbleibend
10.07.2020 - 01:4217.1 °C87.5%0 km/h 0 km/h S-SW0.0 mm 0.0 mm 1009.6 hPa, gleichbleibend
10.07.2020 - 01:4117.1 °C87%0 km/h 0 km/h S-SW0.0 mm 0.0 mm 1009.6 hPa, langsam fallend
10.07.2020 - 01:4017.2 °C87%0 km/h 0 km/h S-SW0.0 mm 0.0 mm 1009.7 hPa, gleichbleibend
10.07.2020 - 01:3917.2 °C87%0 km/h 0 km/h S-SW0.0 mm 0.0 mm 1009.7 hPa, gleichbleibend
10.07.2020 - 01:3817.2 °C87%0 km/h 0 km/h S-SW0.0 mm 0.0 mm 1009.7 hPa, gleichbleibend
10.07.2020 - 01:3717.2 °C87%0 km/h 0 km/h S-SW0.0 mm 0.0 mm 1009.7 hPa, gleichbleibend
10.07.2020 - 01:3617.2 °C87%0 km/h 0 km/h S-SW0.0 mm 0.0 mm 1009.7 hPa, gleichbleibend
10.07.2020 - 01:3517.3 °C87%0 km/h 0 km/h S-SW0.0 mm 0.0 mm 1009.7 hPa, gleichbleibend
10.07.2020 - 01:3417.3 °C87%0 km/h 0 km/h S-SW0.0 mm 0.0 mm 1009.7 hPa, gleichbleibend
10.07.2020 - 01:3317.3 °C87%0 km/h 0 km/h S-SW0.0 mm 0.0 mm 1009.7 hPa, gleichbleibend
10.07.2020 - 01:3217.4 °C86%0 km/h 0 km/h S-SW0.0 mm 0.0 mm 1009.7 hPa, gleichbleibend
10.07.2020 - 01:3117.4 °C86%0 km/h 0 km/h S-SW0.0 mm 0.0 mm 1009.7 hPa, gleichbleibend
10.07.2020 - 01:3017.4 °C86%0 km/h 0 km/h S-SW0.0 mm 0.0 mm 1009.7 hPa, gleichbleibend
10.07.2020 - 01:2917.4 °C86%0 km/h 0 km/h S-SW0.0 mm 0.0 mm 1009.8 hPa, gleichbleibend
10.07.2020 - 01:2817.4 °C86%0 km/h 0 km/h S-SW0.0 mm 0.0 mm 1009.8 hPa, gleichbleibend
10.07.2020 - 01:2717.4 °C86%0 km/h 0 km/h S-SW0.0 mm 0.0 mm 1009.8 hPa, gleichbleibend
10.07.2020 - 01:2617.4 °C86%0 km/h 1 km/h SO0.0 mm 0.0 mm 1009.8 hPa, gleichbleibend
10.07.2020 - 01:2517.3 °C86%0 km/h 5 km/h SO0.0 mm 0.0 mm 1009.8 hPa, gleichbleibend
10.07.2020 - 01:2417.3 °C86%0 km/h 1 km/h S0.0 mm 0.0 mm 1009.8 hPa, gleichbleibend
10.07.2020 - 01:2317.3 °C86%0 km/h 7 km/h S0.0 mm 0.0 mm 1009.8 hPa, gleichbleibend
10.07.2020 - 01:2217.3 °C86%0 km/h 3 km/h S-SO0.0 mm 0.0 mm 1009.8 hPa, gleichbleibend
10.07.2020 - 01:2117.3 °C86.5%0 km/h 1 km/h S0.0 mm 0.0 mm 1009.8 hPa, langsam fallend
10.07.2020 - 01:2017.3 °C86.5%0 km/h 0 km/h S-SO0.0 mm 0.0 mm 1009.9 hPa, gleichbleibend
10.07.2020 - 01:1917.3 °C86%0 km/h 3 km/h S-SO0.0 mm 0.0 mm 1009.9 hPa, gleichbleibend
10.07.2020 - 01:1817.3 °C86%0 km/h 0 km/h S-SW0.0 mm 0.0 mm 1009.9 hPa, langsam steigend
10.07.2020 - 01:1717.3 °C86%0 km/h 0 km/h S-SW0.0 mm 0.0 mm 1009.8 hPa, gleichbleibend
10.07.2020 - 01:1617.3 °C86%0 km/h 0 km/h S-SW0.0 mm 0.0 mm 1009.8 hPa, gleichbleibend
10.07.2020 - 01:1517.3 °C86%0 km/h 1 km/h S-SW0.0 mm 0.0 mm 1009.8 hPa, gleichbleibend
10.07.2020 - 01:1417.3 °C86%0 km/h 0 km/h S-SW0.0 mm 0.0 mm 1009.8 hPa, gleichbleibend
10.07.2020 - 01:1317.3 °C86%0 km/h 0 km/h S-SW0.0 mm 0.0 mm 1009.8 hPa, gleichbleibend
10.07.2020 - 01:1217.3 °C86%0 km/h 0 km/h S-SW0.0 mm 0.0 mm 1009.8 hPa, gleichbleibend
10.07.2020 - 01:1117.3 °C86%0 km/h 0 km/h S-SW0.0 mm 0.0 mm 1009.8 hPa, gleichbleibend
10.07.2020 - 01:1017.3 °C86%0 km/h 0 km/h S-SW0.0 mm 0.0 mm 1009.8 hPa, gleichbleibend
10.07.2020 - 01:0917.3 °C86%0 km/h 0 km/h S-SW0.0 mm 0.0 mm 1009.8 hPa, gleichbleibend
10.07.2020 - 01:0817.3 °C86%0 km/h 0 km/h S-SW0.0 mm 0.0 mm 1009.8 hPa, gleichbleibend
10.07.2020 - 01:0717.3 °C86%0 km/h 0 km/h S-SW0.0 mm 0.0 mm 1009.8 hPa, langsam fallend
10.07.2020 - 01:0617.3 °C86%0 km/h 0 km/h S-SW0.0 mm 0.0 mm 1009.9 hPa, gleichbleibend
10.07.2020 - 01:0517.3 °C86%0 km/h 0 km/h S-SW0.0 mm 0.0 mm 1009.9 hPa, gleichbleibend
10.07.2020 - 01:0417.4 °C86%0 km/h 0 km/h S-SW0.0 mm 0.0 mm 1009.9 hPa, gleichbleibend
10.07.2020 - 01:0317.4 °C86%0 km/h 0 km/h S-SW0.0 mm 0.0 mm 1009.9 hPa, gleichbleibend
10.07.2020 - 01:0217.4 °C86%0 km/h 0 km/h S-SW0.0 mm 0.0 mm 1009.9 hPa, gleichbleibend
10.07.2020 - 01:0117.4 °C86%0 km/h 0 km/h S-SW0.0 mm 0.0 mm 1009.9 hPa, gleichbleibend
10.07.2020 - 01:0017.4 °C86%0 km/h 0 km/h S-SW0.0 mm 0.0 mm 1009.9 hPa, gleichbleibend
10.07.2020 - 00:5917.4 °C86%0 km/h 0 km/h S-SW0.0 mm 0.0 mm 1009.9 hPa, gleichbleibend
10.07.2020 - 00:5817.4 °C86%0 km/h 0 km/h S-SW0.0 mm 0.0 mm 1009.9 hPa, langsam fallend
10.07.2020 - 00:5717.4 °C86%0 km/h 0 km/h S-SW0.0 mm 0.0 mm 1010.0 hPa, langsam steigend
10.07.2020 - 00:5617.4 °C86%0 km/h 0 km/h S-SW0.0 mm 0.0 mm 1009.9 hPa, gleichbleibend
10.07.2020 - 00:5517.4 °C86%0 km/h 0 km/h S-SW0.0 mm 0.0 mm 1009.9 hPa, gleichbleibend
10.07.2020 - 00:5417.4 °C86%0 km/h 0 km/h S-SW0.0 mm 0.0 mm 1009.9 hPa, gleichbleibend
10.07.2020 - 00:5317.4 °C86%0 km/h 0 km/h S-SW0.0 mm 0.0 mm 1009.9 hPa, langsam fallend
10.07.2020 - 00:5217.4 °C86%0 km/h 0 km/h S-SW0.0 mm 0.0 mm 1010.0 hPa, gleichbleibend
10.07.2020 - 00:5117.4 °C86%0 km/h 0 km/h S-SW0.0 mm 0.0 mm 1010.0 hPa, gleichbleibend
10.07.2020 - 00:5017.4 °C86%0 km/h 0 km/h S-SW0.0 mm 0.0 mm 1010.0 hPa, gleichbleibend
10.07.2020 - 00:4917.3 °C86%0 km/h 0 km/h S-SW0.0 mm 0.0 mm 1010.0 hPa, gleichbleibend
10.07.2020 - 00:4817.3 °C86%0 km/h 0 km/h S-SW0.0 mm 0.0 mm 1010.0 hPa, langsam fallend
10.07.2020 - 00:4717.3 °C87%0 km/h 0 km/h S-SW0.0 mm 0.0 mm 1010.1 hPa, gleichbleibend
10.07.2020 - 00:4617.2 °C87%0 km/h 0 km/h S-SW0.0 mm 0.0 mm 1010.1 hPa, gleichbleibend
10.07.2020 - 00:4517.1 °C87%0 km/h 0 km/h S-SW0.0 mm 0.0 mm 1010.1 hPa, gleichbleibend
10.07.2020 - 00:4417.1 °C87%0 km/h 0 km/h S-SW0.0 mm 0.0 mm 1010.1 hPa, langsam fallend